Meteo pe oră la Bolshoe Ginevo

Astăzi, 10 Mai, Luni

Timp Temperatura Precipitaţii Vânt Presiune Umiditate
00:00 +5°C° 0 mm 3 m/s 751 mmHg 73%
01:00 +6°C° 0 mm 4 m/s 751 mmHg 70%
02:00 +6°C° 0 mm 4 m/s 751 mmHg 67%
03:00 +6°C° 0 mm 4 m/s 751 mmHg 68%
04:00 +6°C° 0 mm 4 m/s 751 mmHg 69%
05:00 +6°C° 0 mm 4 m/s 751 mmHg 69%
06:00 +8°C° 0 mm 5 m/s 751 mmHg 68%
07:00 +9°C° 0 mm 5 m/s 752 mmHg 67%
08:00 +10°C° 0 mm 5 m/s 752 mmHg 65%
09:00 +12°C° 0 mm 5 m/s 752 mmHg 62%
10:00 +14°C° 0 mm 5 m/s 752 mmHg 59%
11:00 +16°C° 0 mm 5 m/s 752 mmHg 56%
12:00 +16°C° 0 mm 5 m/s 752 mmHg 55%
13:00 +17°C° 0 mm 6 m/s 752 mmHg 54%
14:00 +19°C° 0 mm 6 m/s 752 mmHg 53%
15:00 +19°C° 0 mm 5 m/s 752 mmHg 56%
16:00 +19°C° 0 mm 5 m/s 752 mmHg 59%
17:00 +18°C° 0 mm 4 m/s 752 mmHg 62%
18:00 +15°C° 0 mm 4 m/s 752 mmHg 68%
19:00 +14°C° 0 mm 3 m/s 752 mmHg 75%
20:00 +12°C° 0 mm 3 m/s 752 mmHg 81%
21:00 +11°C° 0 mm 3 m/s 752 mmHg 82%
22:00 +10°C° 0 mm 3 m/s 753 mmHg 83%
23:00 +9°C° 0 mm 3 m/s 753 mmHg 84%

Mâine, 11 Mai, Marţi

Timp Temperatura Precipitaţii Vânt Presiune Umiditate
00:00 +9°C° 0 mm 3 m/s 753 mmHg 84%
01:00 +8°C° 0 mm 3 m/s 753 mmHg 83%
02:00 +8°C° 0 mm 3 m/s 753 mmHg 83%
03:00 +7°C° 0 mm 3 m/s 753 mmHg 82%
04:00 +7°C° 0 mm 3 m/s 753 mmHg 82%
05:00 +7°C° 0 mm 3 m/s 753 mmHg 81%
06:00 +8°C° 0 mm 4 m/s 753 mmHg 74%
07:00 +10°C° 0 mm 4 m/s 753 mmHg 68%
08:00 +12°C° 0 mm 5 m/s 753 mmHg 61%
09:00 +14°C° 0 mm 5 m/s 753 mmHg 57%
10:00 +15°C° 0 mm 5 m/s 753 mmHg 52%
11:00 +16°C° 0 mm 5 m/s 753 mmHg 47%
12:00 +17°C° 0 mm 5 m/s 753 mmHg 46%
13:00 +19°C° 0 mm 5 m/s 752 mmHg 44%
14:00 +19°C° 0 mm 4 m/s 752 mmHg 43%
15:00 +19°C° 0 mm 4 m/s 752 mmHg 46%
16:00 +19°C° 0 mm 4 m/s 752 mmHg 49%
17:00 +19°C° 0 mm 4 m/s 751 mmHg 52%
18:00 +17°C° 0 mm 4 m/s 751 mmHg 59%
19:00 +14°C° 0 mm 3 m/s 751 mmHg 66%
20:00 +12°C° 0 mm 3 m/s 751 mmHg 73%
21:00 +11°C° 0 mm 3 m/s 751 mmHg 76%
22:00 +10°C° 0 mm 3 m/s 751 mmHg 78%
23:00 +10°C° 0 mm 3 m/s 751 mmHg 80%

Poimâine, 12 Mai, Miercuri

Timp Temperatura Precipitaţii Vânt Presiune Umiditate
00:00 +10°C° 0 mm 3 m/s 751 mmHg 84%
01:00 +9°C° 0 mm 3 m/s 751 mmHg 88%
02:00 +9°C° 0 mm 3 m/s 750 mmHg 92%
03:00 +9°C° 0 mm 3 m/s 750 mmHg 93%
04:00 +10°C° 0 mm 3 m/s 750 mmHg 94%
05:00 +10°C° 0 mm 3 m/s 751 mmHg 95%
06:00 +11°C° 0 mm 4 m/s 751 mmHg 88%
07:00 +12°C° 0 mm 5 m/s 751 mmHg 80%
08:00 +14°C° 0 mm 5 m/s 751 mmHg 73%
09:00 +14°C° 0 mm 5 m/s 751 mmHg 66%
10:00 +15°C° 0 mm 5 m/s 751 mmHg 59%
11:00 +16°C° 0 mm 5 m/s 750 mmHg 51%
12:00 +17°C° 0 mm 5 m/s 750 mmHg 50%
13:00 +17°C° 0 mm 5 m/s 750 mmHg 49%
14:00 +19°C° 0 mm 4 m/s 749 mmHg 47%
15:00 +18°C° 0 mm 4 m/s 749 mmHg 50%
16:00 +18°C° 0 mm 3 m/s 748 mmHg 52%
17:00 +18°C° 0 mm 3 m/s 748 mmHg 54%
18:00 +16°C° 0 mm 2 m/s 747 mmHg 60%
19:00 +15°C° 0 mm 2 m/s 746 mmHg 66%
20:00 +13°C° 0 mm 1 m/s 746 mmHg 72%
21:00 +13°C° 0.8 mm 2 m/s 745 mmHg 79%
22:00 +12°C° 0.8 mm 2 m/s 744 mmHg 86%
23:00 +11°C° 0.8 mm 3 m/s 743 mmHg 93%

13 Mai, Joi

Timp Temperatura Precipitaţii Vânt Presiune Umiditate
00:00 +11°C° 2.7 mm 3 m/s 742 mmHg 94%
01:00 +11°C° 2.7 mm 4 m/s 741 mmHg 95%
02:00 +11°C° 2.7 mm 4 m/s 740 mmHg 96%
03:00 +9°C° 1.8 mm 5 m/s 739 mmHg 96%
04:00 +9°C° 1.8 mm 6 m/s 739 mmHg 95%
05:00 +7°C° 1.8 mm 8 m/s 739 mmHg 95%
06:00 +8°C° 2 mm 7 m/s 740 mmHg 94%
07:00 +6°C° 2 mm 7 m/s 740 mmHg 93%
08:00 +6°C° 2 mm 7 m/s 741 mmHg 93%
09:00 +6°C° 1.5 mm 7 m/s 741 mmHg 93%
10:00 +7°C° 1.5 mm 6 m/s 742 mmHg 93%
11:00 +7°C° 1.5 mm 6 m/s 742 mmHg 93%
12:00 +8°C° 0.6 mm 6 m/s 742 mmHg 93%
13:00 +8°C° 0.6 mm 6 m/s 742 mmHg 92%
14:00 +9°C° 0.6 mm 6 m/s 742 mmHg 91%
15:00 +9°C° 0.2 mm 6 m/s 742 mmHg 90%
16:00 +10°C° 0.2 mm 6 m/s 742 mmHg 88%
17:00 +10°C° 0.2 mm 6 m/s 742 mmHg 86%
18:00 +10°C° 0.1 mm 6 m/s 742 mmHg 86%
19:00 +10°C° 0.1 mm 6 m/s 742 mmHg 86%
20:00 +10°C° 0.1 mm 6 m/s 742 mmHg 85%
21:00 +10°C° 0.1 mm 6 m/s 742 mmHg 86%
22:00 +10°C° 0.1 mm 6 m/s 742 mmHg 86%
23:00 +10°C° 0.1 mm 5 m/s 742 mmHg 86%

14 Mai, Vineri

Timp Temperatura Precipitaţii Vânt Presiune Umiditate
00:00 +10°C° 0 mm 5 m/s 742 mmHg 87%
01:00 +9°C° 0 mm 5 m/s 742 mmHg 88%
02:00 +10°C° 0 mm 4 m/s 742 mmHg 89%
03:00 +10°C° 0 mm 4 m/s 742 mmHg 89%
04:00 +10°C° 0 mm 4 m/s 741 mmHg 89%
05:00 +10°C° 0 mm 4 m/s 741 mmHg 89%
06:00 +10°C° 0.3 mm 4 m/s 741 mmHg 91%
07:00 +9°C° 0.3 mm 5 m/s 740 mmHg 92%
08:00 +10°C° 0.3 mm 5 m/s 740 mmHg 93%
09:00 +10°C° 0.4 mm 5 m/s 740 mmHg 93%
10:00 +12°C° 0.4 mm 5 m/s 740 mmHg 93%
11:00 +13°C° 0.4 mm 5 m/s 740 mmHg 93%
12:00 +13°C° 0.3 mm 4 m/s 740 mmHg 92%
13:00 +13°C° 0.3 mm 4 m/s 740 mmHg 91%
14:00 +14°C° 0.3 mm 3 m/s 740 mmHg 89%
15:00 +14°C° 0.1 mm 3 m/s 740 mmHg 89%
16:00 +14°C° 0.1 mm 3 m/s 740 mmHg 89%
17:00 +13°C° 0.1 mm 3 m/s 740 mmHg 89%
18:00 +13°C° 0 mm 3 m/s 740 mmHg 91%
19:00 +13°C° 0 mm 2 m/s 740 mmHg 93%
20:00 +13°C° 0 mm 2 m/s 740 mmHg 95%
21:00 +12°C° 0 mm 2 m/s 740 mmHg 95%
22:00 +12°C° 0 mm 2 m/s 740 mmHg 96%
23:00 +10°C° 0 mm 2 m/s 741 mmHg 96%

15 Mai, Sâmbătă

Timp Temperatura Precipitaţii Vânt Presiune Umiditate
00:00 +10°C° 0 mm 2 m/s 741 mmHg 96%
01:00 +9°C° 0 mm 2 m/s 741 mmHg 96%
02:00 +9°C° 0 mm 2 m/s 741 mmHg 96%
03:00 +9°C° 0 mm 2 m/s 741 mmHg 96%
04:00 +9°C° 0 mm 2 m/s 741 mmHg 96%
05:00 +9°C° 0 mm 2 m/s 742 mmHg 96%
06:00 +10°C° 0 mm 2 m/s 742 mmHg 92%
07:00 +12°C° 0 mm 3 m/s 742 mmHg 87%
08:00 +14°C° 0 mm 3 m/s 743 mmHg 83%
09:00 +16°C° 0 mm 3 m/s 743 mmHg 77%
10:00 +17°C° 0 mm 3 m/s 743 mmHg 71%
11:00 +18°C° 0 mm 3 m/s 743 mmHg 66%
12:00 +19°C° 0.3 mm 3 m/s 743 mmHg 64%
13:00 +19°C° 0.3 mm 2 m/s 743 mmHg 62%
14:00 +20°C° 0.3 mm 2 m/s 743 mmHg 61%
15:00 +19°C° 0.5 mm 2 m/s 743 mmHg 66%
16:00 +18°C° 0.5 mm 2 m/s 743 mmHg 71%
17:00 +18°C° 0.5 mm 2 m/s 743 mmHg 76%
18:00 +17°C° 0.2 mm 2 m/s 743 mmHg 80%
19:00 +15°C° 0.2 mm 2 m/s 743 mmHg 84%
20:00 +14°C° 0.2 mm 2 m/s 743 mmHg 88%
21:00 +13°C° 0 mm 2 m/s 743 mmHg 89%
22:00 +13°C° 0 mm 2 m/s 743 mmHg 91%
23:00 +12°C° 0 mm 2 m/s 743 mmHg 93%
Arată mai mult

Formular de consimțământ

Meteoprog și furnizorii noștri de servicii pot stoca și accesa date personale, precum cookies, identificatori de dispozitiv sau alte tehnologii similare pe dispozitivul dumneavoastră și procesa astfel de date pentru a personaliza conținutul și reclamele, dar și pentru a oferi caracteristici de social media și pentru a analiza traficul.

  • Stocarea și/sau accesarea informațiilor pe dispozitivul dumneavoastră

    Cookies, identificatori de dispozitiv sau alte informații pot fi stocate sau accesate pe dispozitiv în scopurile indicate mai sus.

  • Reclame și conținut personalizat, evaluarea reclamelor și a conținutului, informații despre audiențe și dezvoltarea produselor

    Reclamele și conținutul pot fi personalizate pe baza unui profil. Pot fi adăugate date suplimentare pentru a personaliza mai bine reclamele și conținutul. Performanța reclamelor și conținutului poate fi măsurată. Pot fi obținute informații despre utilizatorii care au văzut reclamele și conținutul. Aceste date pot fi utilizate pentru a dezvolta sau îmbunătăți experiența utilizatorilor, sistemele și software-ul.

Dând clic pe ‘Sunt de acord’, permiteți utilizarea cookie-urilor menționate, a identificatorilor de dispozitiv, balizelor web sau altor tehnologii similare. Setările pot fi modificate din browser-ul dispozitivului dumneavoastră.

În anumite scopuri, interesele legitime pot prima asupra consimțământului. Puteți citi mai multe informații în acest sens în Politica privind Confidențialitatea Datelor și Cookie.